Location: Songkhla
(7.2000°N, 100.6000°E)
Time: 08:08:50
(UTC+07:00)

Meteor 2-19 Rocket - Pass Details

Date: 16 April 2026
Orbit: 936 x 959 km, 82.5° (Epoch: 17 May)

Event Time Altitude Azimuth Distance (km) Brightness Sun altitude
Rises 20:16:29 0° 357° (N) 3,611 7.7 -27.5°
Reaches altitude 10° 20:18:59 10° 358° (N) 2,663 7.0 -28.1°
Enters shadow 20:24:33 76° 16° (NNE) 974 4.3 -29.5°
